Location: Krasnoyarskiy Pitomnik
(51.1333°N, 71.6167°E)
Time: 22:19:55
(UTC+00:00)

Vanguard 1 - Pass Details

Date: 21 April 2024
Orbit: 651 x 3826 km, 34.2° (Epoch: 18 May)

Event Time Altitude Azimuth Distance (km) Brightness Sun altitude
Exits shadow 22:57:24 - 219° (SW) 7,108 13.8 -10.0°
Reaches altitude 10° 22:58:48 10° 217° (SW) 6,865 13.7 -9.9°
Maximum altitude 23:17:00 35° 163° (SSE) 4,260 13.2 -7.4°
Drops below altitude 10° 23:29:36 10° 105° (ESE) 4,808 14.4 -5.7°
Sets 23:33:04 0° 96° (E) 5,419 14.9 -5.2°
